Location: Oshawa
(43.9000°N, 78.8670°W)
Time: 03:48:05
(UTC-04:00)

Cosmos 1707 Rocket - Visible Passes

Search period start: 01 August 2014 00:00
Search period end: 11 August 2014 00:00
Orbit: 607 x 633 km, 82.5° (Epoch: 31 July)

Date Brightness Start Highest point End Pass type
(mag) Time Alt. Az. Time Alt. Az. Time Alt. Az.
01 Aug 6.1 03:31:42 10° SE 03:34:41 18° E 03:37:40 10° NE visible
01 Aug 4.1 05:07:56 10° SSW 05:12:12 44° WNW 05:16:29 10° N visible
02 Aug 5.2 03:48:50 13° SSE 03:52:13 31° E 03:56:10 10° NNE visible
02 Aug 4.9 05:26:27 10° SW 05:30:07 25° WNW 05:33:49 10° NNW visible
03 Aug 4.1 04:06:54 20° SSE 04:09:51 59° E 04:14:15 10° NNE visible
04 Aug 6.4 02:49:33 10° E 02:50:23 11° E 02:51:13 10° ENE visible
04 Aug 3.5 04:24:57 24° SSW 04:27:35 75° W 04:32:04 10° N visible
05 Aug 5.8 03:05:47 15° ESE 03:07:50 19° E 03:11:00 10° NE visible
05 Aug 4.2 04:42:59 22° SW 04:45:25 40° WNW 04:49:38 10° N visible
06 Aug 4.9 03:23:47 26° SE 03:25:23 34° E 03:29:26 10° NNE visible
06 Aug 5.0 05:00:59 15° WSW 05:03:21 23° WNW 05:06:54 10° NNW visible
07 Aug 3.8 03:41:45 43° SSE 03:43:02 64° E 03:47:27 10° NNE visible
07 Aug 5.6 05:19:16 10° W 05:21:24 13° WNW 05:23:31 10° NW visible
08 Aug 6.2 02:22:31 11° E 02:23:31 12° E 02:25:00 10° ENE visible
08 Aug 3.6 03:59:43 49° SW 04:00:47 68° W 04:05:14 10° N visible
09 Aug 5.5 02:40:27 20° E 02:40:59 21° E 02:44:19 10° NE visible
09 Aug 4.3 04:17:39 32° WSW 04:18:37 36° WNW 04:22:46 10° N visible
10 Aug 4.6 02:58:22 37° E 02:58:33 37° E 03:02:39 10° NNE visible
10 Aug 5.1 04:35:34 19° W 04:36:34 21° WNW 04:39:57 10° NNW visible
